Theta_e
310 309 308 308 308 308 307 306 305 304 304 303 301 302 301 301 301 300 303 301 299 299 300 298 297 297 295 295 297 298 300 298
309 308 308 308 308 308 307 306 306 305 304 303 301 302 300 300 301 303 302 303 300 300 299 298 297 295 295 295 296 296 297 300
309 308 308 308 307 307 307 306 306 305 304 302 302 302 301 301 301 305 302 305 300 300 299 297 295 295 295 293 294 294 295 297
309 309 308 308 307 306 307 306 305 305 304 303 304 303 306 303 300 301 301 302 300 299 299 300 295 297 299 301 299 293 293 296
309 309 308 308 307 307 306 306 306 304 303 304 305 304 305 301 301 302 301 301 300 299 298 298 298 296 298 299 301 294 293 295
310 309 308 308 307 306 306 306 306 304 303 305 305 304 303 300 301 300 299 300 299 298 297 298 298 300 300 299 300 295 293 294
311 310 308 307 307 307 306 305 305 304 303 304 309 305 300 300 299 298 298 298 298 298 299 298 297 298 300 300 299 296 295 294
309 309 308 307 306 306 305 303 303 302 304 305 305 301 300 299 298 299 299 299 300 301 300 300 302 300 300 299 299 299 296 295
310 309 307 307 306 305 303 302 301 303 305 305 300 300 299 299 298 298 298 299 299 298 300 301 301 302 304 300 298 300 297 295
309 307 306 305 305 305 302 301 303 304 304 303 299 298 301 302 298 298 300 299 299 299 300 301 303 303 301 300 298 296 297 293
308 307 305 304 304 304 301 302 303 305 302 299 299 300 300 301 299 298 298 298 299 300 300 299 297 298 296 297 297 296 297 294
306 305 304 302 303 304 303 303 305 303 299 299 300 299 300 300 301 300 299 298 298 300 299 298 297 296 293 293 293 291 294 294
305 303 302 301 302 302 303 304 305 304 300 299 300 301 299 299 299 300 299 299 300 300 299 297 295 295 294 292 291 291 290 291
302 301 300 300 301 302 304 305 305 302 301 298 299 300 299 300 299 300 298 298 298 294 296 296 296 293 293 292 292 291 291 291
302 301 301 300 301 302 304 306 304 302 300 300 302 301 299 297 298 298 298 297 293 292 293 294 292 293 293 292 292 292 292 292
303 302 301 301 302 303 305 306 304 303 305 302 299 297 296 297 298 299 299 296 294 294 295 293 291 291 292 292 293 293 292 291
304 302 302 303 303 303 306 305 304 304 300 299 300 299 299 300 299 298 297 295 294 293 293 293 292 292 292 292 293 292 290 290
302 301 303 304 303 305 306 305 302 301 301 300 298 296 298 300 300 295 295 295 293 292 293 293 294 293 292 292 292 291 290 290
303 303 303 303 303 305 306 304 302 301 300 301 298 300 298 300 296 293 293 294 292 292 292 292 287 292 291 291 291 291 290 290
303 302 303 304 304 305 306 304 302 301 300 300 301 301 302 296 293 293 293 293 292 293 292 291 287 291 291 291 291 291 291 291
Wind_Speed
16 17 16 16 14 12 11 12 11 9 7 7 4 4 4 5 5 3 3 5 2 5 5 5 4 3 5 4 4 5 4 3
18 17 17 16 14 13 11 11 11 9 7 7 5 5 7 5 3 3 4 4 4 5 5 4 4 2 2 3 5 5 5 4
20 19 17 15 14 12 12 12 11 9 7 6 6 7 4 4 3 2 3 5 4 4 6 3 2 2 1 2 4 5 6 7
19 19 17 17 16 13 13 13 11 9 7 7 6 6 3 6 3 1 3 4 4 3 4 4 4 4 3 3 2 4 6 6
21 20 18 17 15 15 14 13 10 9 8 6 6 4 3 6 4 4 2 3 3 2 2 1 5 6 8 7 6 4 5 6
18 16 15 15 12 12 12 11 11 9 7 6 5 5 5 4 5 4 2 3 3 4 5 5 4 6 10 10 11 5 5 7
16 14 15 13 14 12 12 10 10 9 7 6 6 6 5 6 6 5 3 2 3 4 5 6 6 8 11 15 9 6 6 7
16 15 15 14 10 11 12 9 9 8 7 6 6 6 7 7 6 5 3 3 5 4 6 7 9 9 11 15 10 4 7 6
16 16 15 12 10 11 9 8 8 7 6 6 6 7 7 7 5 3 4 5 5 5 6 7 7 8 11 12 9 6 6 4
15 15 12 9 9 10 8 8 7 7 7 7 7 7 5 4 6 6 5 4 6 7 5 7 5 6 4 8 7 4 3 1
13 15 13 7 8 8 8 7 8 6 7 7 6 6 5 4 5 6 4 5 5 6 4 3 4 4 3 7 9 8 6 1
12 14 12 8 7 7 7 7 7 8 7 5 5 5 6 4 4 4 4 5 5 5 4 3 3 3 2 3 3 2 3 3
12 12 9 8 8 7 7 7 7 6 6 4 4 3 5 5 5 5 5 7 7 7 4 4 4 3 2 3 1 2 3 3
9 8 9 7 7 7 6 7 7 7 4 3 4 3 4 4 4 7 9 11 16 6 9 6 1 8 7 2 1 7 5 3
12 11 8 7 7 6 5 6 7 6 4 5 4 5 4 3 3 4 5 3 7 5 3 6 8 8 4 4 9 10 8 5
11 10 8 7 7 6 5 5 6 5 5 7 3 2 2 4 3 4 3 4 4 3 7 7 7 8 9 10 9 7 5 6
11 10 8 9 7 6 5 6 5 4 3 3 1 2 3 3 4 3 4 5 4 3 4 8 7 10 10 12 9 4 3 3
12 9 9 8 7 6 5 6 6 4 3 6 4 2 3 3 3 4 5 5 5 4 5 3 2 6 5 4 4 3 3 3
8 9 9 8 7 6 6 7 6 3 1 2 4 3 2 1 4 4 5 5 5 5 4 3 5 5 4 3 3 3 3 4
7 6 7 7 6 7 7 7 6 4 2 1 4 1 3 4 4 4 5 5 5 6 4 4 7 4 4 4 3 4 4 3
Wind_Direction
159 155 161 157 157 157 150 159 161 165 159 171 187 204 217 219 232 221 173 168 184 81 125 104 90 71 56 37 44 30 354 322
161 160 165 162 162 161 156 162 162 165 161 173 186 210 209 212 259 234 161 172 183 114 153 155 144 103 64 28 21 359 329 320
167 164 165 162 161 161 155 160 164 161 160 163 204 203 196 203 187 170 239 144 158 131 151 201 213 186 125 14 352 329 323 314
164 163 162 164 165 159 155 162 166 163 155 173 180 186 183 200 206 150 90 89 160 161 151 196 238 273 244 276 285 315 310 302
166 167 163 165 164 158 159 162 159 160 157 172 186 175 191 197 159 147 142 145 170 211 252 216 234 250 263 266 273 277 293 301
162 157 155 156 149 150 146 152 158 158 162 177 193 187 186 173 146 162 172 151 195 230 253 255 261 262 255 261 262 265 277 284
156 151 145 141 147 149 146 147 152 157 167 183 201 193 149 150 154 190 205 193 245 250 252 262 254 260 248 250 253 266 276 277
140 140 140 138 147 142 144 148 149 166 169 185 168 153 143 165 184 199 222 213 240 257 270 248 251 262 262 254 238 249 270 274
130 136 141 143 140 137 141 141 158 177 163 147 144 148 170 184 192 214 230 245 272 276 276 279 256 251 275 278 240 236 245 285
131 129 133 135 136 135 142 154 167 156 149 148 151 161 186 196 208 242 251 262 272 281 280 291 305 316 307 308 303 252 64 275
131 130 131 129 128 134 144 165 141 132 129 153 178 193 212 229 222 247 267 266 268 278 272 293 299 323 327 30 42 26 56 80
131 131 136 137 135 130 145 149 140 124 140 158 199 209 237 237 239 250 250 265 271 263 258 261 234 218 314 10 25 21 23 14
136 139 143 147 131 126 143 146 138 130 141 170 211 228 231 249 249 244 244 251 224 266 251 207 178 211 214 193 191 55 21 338
129 128 130 141 131 141 144 148 143 133 153 209 239 250 262 268 292 296 238 247 287 272 217 176 162 107 148 186 335 63 35 11
140 146 143 140 135 140 157 149 140 147 172 224 235 245 235 281 276 264 291 321 54 94 114 55 81 165 124 108 62 69 48 56
135 137 145 142 136 159 185 156 157 189 214 216 192 203 227 264 310 294 232 173 99 21 44 71 107 108 70 63 82 61 30 27
138 141 143 142 148 178 171 158 173 204 196 225 304 295 283 323 314 20 114 106 85 54 33 45 53 62 57 50 62 75 51 7
139 154 151 153 152 186 177 174 181 192 213 233 212 241 290 22 62 72 93 85 78 72 76 85 55 55 56 39 45 52 27 6
140 144 159 154 174 167 172 181 179 191 191 285 279 274 29 115 103 98 109 117 106 90 89 78 97 99 86 59 36 16 356 9
125 138 169 178 164 163 167 177 167 166 163 318 305 321 140 114 111 104 97 116 106 109 96 62 74 71 65 41 9 357 1 74